Glasgow, United Kingdom

10:50 AM BST on May 25, 2018 (GMT +0100)
Glasgow

Weather History for EGPF - February, 2013

Change the Weather History Date:

Monday, February 25, 2013

  Actual Average Record
Temperature  
Mean Temperature 35 °F -  
Max Temperature 46 °F 46 °F 53 °F (2007)
Min Temperature 24 °F 34 °F 24 °F (2013)
Degree Days  
Heating Degree Days 30    
Moisture  
Dew Point 30 °F    
Average Humidity 85    
Maximum Humidity 100    
Minimum Humidity 61    
Precipitation  
Precipitation 0.00 in - - ()
Sea Level Pressure  
Sea Level Pressure 30.58 in    
Wind  
Wind Speed 3 mph ()    
Max Wind Speed 9 mph    
Max Gust Speed 24 mph    
Visibility 6.0 miles    
Events Fog    
Averages and records for this station are not official NWS values.
T = Trace of Precipitation, MM = Missing Value Source: Averaged Metar Reports

Daily Weather History Graph

Daily Weather History Graph

Search for Another Location

Airport or City:

Astronomy

Feb. 25, 2013 Rise Set
Actual Time 7:18 AM GMT 5:43 PM GMT
Civil Twilight 6:41 AM GMT 6:21 PM GMT
Nautical Twilight 5:58 AM GMT 7:04 PM GMT
Astronomical Twilight 5:15 AM GMT 7:47 PM GMT
Moon 5:51 PM GMT 6:37 AM GMT
Length of Visible Light 11h 40m
Length of Day
10h 25m
Full, 100% of the Moon is Illuminated
Feb 25
Full
Feb 25
Full
Mar 4
Last Quarter
Mar 11
New
Mar 19
First Quarter

Hourly Weather History & Observations

Time (GMT) Temp. Windchill Dew Point Humidity Pressure Visibility Wind Dir Wind Speed Gust Speed Precip Events Conditions
12:20 AM 28.4 °F - 26.6 °F 93% 30.51 in 6.2 mi Calm Calm - N/A   Scattered Clouds
12:50 AM 28.4 °F - 26.6 °F 93% 30.51 in 6.2 mi WSW 2.3 mph - N/A   Mostly Cloudy
1:20 AM 26.6 °F - 24.8 °F 93% 30.51 in 6.2 mi Calm Calm - N/A   Partly Cloudy
1:50 AM 24.8 °F - 23.0 °F 93% 30.51 in - Variable 2.3 mph - N/A   Clear
2:20 AM 26.6 °F - 24.8 °F 93% 30.51 in - Calm Calm - N/A   Clear
2:50 AM 24.8 °F 19.1 °F 23.0 °F 93% 30.51 in - WSW 4.6 mph - N/A   Clear
3:20 AM 24.8 °F - 24.8 °F 100% 30.54 in 6.2 mi West 2.3 mph - N/A   Mostly Cloudy
3:50 AM 28.4 °F - 26.6 °F 93% 30.54 in 6.2 mi West 2.3 mph - N/A   Overcast
4:20 AM 28.4 °F - 28.4 °F 100% 30.54 in 6.2 mi Calm Calm - N/A   Overcast
4:50 AM 28.4 °F 24.6 °F 28.4 °F 100% 30.54 in 6.2 mi SE 3.5 mph - N/A   Mostly Cloudy
5:20 AM 28.4 °F 24.6 °F 26.6 °F 93% 30.54 in 6.2 mi SW 3.5 mph - N/A   Mostly Cloudy
5:50 AM 28.4 °F - 26.6 °F 93% 30.54 in 6.2 mi NW 2.3 mph - N/A   Scattered Clouds
6:20 AM 26.6 °F - 26.6 °F 100% 30.54 in 6.2 mi Calm Calm - N/A   Partly Cloudy
6:50 AM 26.6 °F - 26.6 °F 100% 30.54 in 6.2 mi SW 2.3 mph - N/A   Unknown
7:20 AM 26.6 °F - 24.8 °F 93% 30.57 in 3.1 mi SSE 2.3 mph - N/A Fog Fog
7:50 AM 24.8 °F - 24.8 °F 100% 30.57 in - WNW 2.3 mph - N/A   Clear
8:20 AM 26.6 °F - 26.6 °F 100% 30.57 in - Calm Calm - N/A   Clear
8:50 AM 30.2 °F 26.7 °F 30.2 °F 100% 30.57 in - Variable 3.5 mph - N/A   Clear
9:20 AM 33.8 °F - 32.0 °F 93% 30.60 in - Variable 2.3 mph - N/A   Clear
9:50 AM 35.6 °F - 32.0 °F 87% 30.60 in - Calm Calm - N/A   Clear
10:20 AM 37.4 °F - 32.0 °F 81% 30.60 in - Variable 2.3 mph - N/A   Clear
10:50 AM 39.2 °F - 33.8 °F 81% 30.60 in 6.2 mi Variable 2.3 mph - N/A   Partly Cloudy
11:20 AM 39.2 °F 37.0 °F 32.0 °F 75% 30.60 in 6.2 mi Variable 3.5 mph - N/A   Partly Cloudy
11:50 AM 41.0 °F - 33.8 °F 76% 30.60 in 6.2 mi Variable 2.3 mph - N/A   Partly Cloudy
12:20 PM 42.8 °F 40.1 °F 33.8 °F 70% 30.60 in 6.2 mi ESE 4.6 mph - N/A   Partly Cloudy
12:50 PM 42.8 °F 37.5 °F 33.8 °F 70% 30.60 in 6.2 mi East 9.2 mph - N/A   Partly Cloudy
1:20 PM 42.8 °F 38.0 °F 33.8 °F 70% 30.60 in 6.2 mi ESE 8.1 mph 24.2 mph N/A   Partly Cloudy
1:50 PM 44.6 °F 40.7 °F 33.8 °F 66% 30.60 in 6.2 mi East 6.9 mph - N/A   Partly Cloudy
2:20 PM 44.6 °F 39.7 °F 33.8 °F 66% 30.57 in - East 9.2 mph - N/A   Clear
2:50 PM 46.4 °F 42.4 °F 33.8 °F 62% 30.57 in - East 8.1 mph - N/A   Clear
3:20 PM 46.4 °F 42.4 °F 33.8 °F 62% 30.57 in - East 8.1 mph - N/A   Clear
3:50 PM 44.6 °F 40.7 °F 33.8 °F 66% 30.57 in - East 6.9 mph - N/A   Clear
4:20 PM 44.6 °F 39.7 °F 33.8 °F 66% 30.57 in - ENE 9.2 mph - N/A   Clear
4:50 PM 44.6 °F 40.2 °F 32.0 °F 61% 30.57 in - East 8.1 mph - N/A   Clear
5:20 PM 42.8 °F 38.0 °F 32.0 °F 66% 30.60 in - East 8.1 mph - N/A   Clear
5:50 PM 41.0 °F 36.4 °F 32.0 °F 70% 30.60 in - East 6.9 mph - N/A   Clear
6:20 PM 39.2 °F 35.0 °F 32.0 °F 75% 30.60 in - East 5.8 mph - N/A   Clear
6:50 PM 37.4 °F 32.1 °F 30.2 °F 75% 30.60 in - ENE 6.9 mph - N/A   Clear
7:20 PM 35.6 °F 29.9 °F 32.0 °F 87% 30.60 in - ENE 6.9 mph - N/A   Clear
7:50 PM 35.6 °F 31.7 °F 32.0 °F 87% 30.63 in - NNE 4.6 mph - N/A   Clear
8:20 PM 33.8 °F 29.6 °F 30.2 °F 87% 30.63 in - NE 4.6 mph - N/A   Clear
8:50 PM 33.8 °F 29.6 °F 30.2 °F 87% 30.63 in - NNE 4.6 mph - N/A   Clear
9:20 PM 32.0 °F 26.4 °F 30.2 °F 93% 30.63 in - NE 5.8 mph - N/A   Clear
9:50 PM 33.8 °F 29.6 °F 32.0 °F 93% 30.63 in - East 4.6 mph - N/A   Clear
10:20 PM 33.8 °F - 32.0 °F 93% 30.63 in - Variable 2.3 mph - N/A   Clear
10:50 PM 30.2 °F 25.4 °F 28.4 °F 93% 30.63 in - NE 4.6 mph - N/A   Clear
11:20 PM 32.0 °F - 30.2 °F 93% 30.63 in 5.6 mi Calm Calm - N/A   Partly Cloudy
11:50 PM 32.0 °F - 32.0 °F 100% 30.66 in 5.0 mi Variable 2.3 mph - N/A   Mostly Cloudy